Погода Токо

Погода Токо : погода сейчас, прогноз погоды и архив. Всё, что Вы хотите узнать о погоде Токо!

Хотите узнать прогноз погоды Токо? Тогда Вам сюда: Погода Токо

Поиск расширенной информации на нашем сайте:

Другие новости

Новости СМИ2

Главная страница сайта

Новости сайта

03.07.2017

Напоминаем, что на нашем специализированном сайте Метеоцентр.Азия вы можете получить высокодетализированные автоматические прогнозы погоды по пунктам России, СНГ и мира в авиационном формате (включающие направление и скорость ветра, видимость, явления погоды, количество и форму облачности, нижнюю и верхнюю границу облачности).


Погода Токо - сегодня

Время (UTC), дата Ветер
(°,м/с) 
Видим.   Явления Облачность Т
(°С)
Тd
(°С)
f(%) Тe
(°С)
Pmin
(гПа)
dP
(гПа)
Po
(мм)
O2
(г/м3)
Тmin Tmax R s Состояние
почвы
21 21.11.17 тихо ()   20000 м    ясно 
-43.3 -45.7 77 -43  1022.1  -0.9  677  326           
00 22.11.17 тихо ()   20000 м    ясно 
-40.9 -43.1 79 -41  1020.9  0.1  677  323  -43.3      25  равномерный
сухой снег
100% 
03 22.11.17 тихо ()   20000 м    3/0 верхняя 
[Ci fib]
-33.8 -36.1 80 -34  1017.3  0.1  677  313           
06 22.11.17 тихо ()   20000 м    4/0 верхняя 
[Ci fib]
-24.5 -27.7 75 -25  1012  -0.7  676  301           
09 22.11.17 тихо ()   20000 м    ясно 
-32.5 -34.8 80 -33  1017.1  677  311           
12 22.11.17 тихо ()   20000 м    ясно 
-38.6 -40.7 81 -39  1021.7  1.4  678  320    -24.1       
15 22.11.17 тихо ()   20000 м    ясно 
-41.7 -43.1 86 -42  1024.2  0.7  679  325           
18 22.11.17 тихо ()   20000 м    ясно 
-41 -43.1 80 -41  1024.1  0.3  679  324           
21 22.11.17 тихо ()   20000 м    ясно 
-43.9 -45.6 83 -44  1026.5  0.6  679  328           
00 23.11.17 тихо ()   20000 м    4/0 средняя, верхняя 
[Ac trans|Ci fib]
-43.3 -45.6 78 -43  1027.4  1.1  680  328  -44.2      25  равномерный
сухой снег
100% 
03 23.11.17 тихо ()   20000 м    6/0 верхняя 
[Ci fib]
-33.3 -35.6 80 -33  1022.5  0.4  680  314           
06 23.11.17 360 (С) 20000 м    6/0 верхняя 
[Ci fib]
-29.1 -31.5 80 -30  1020.3  -0.1  680  309           
09 23.11.17 тихо ()   20000 м    4/0 верхняя 
[Ci fib]
-38.1 -40.3 80 -38  1025.7  0.7  681  321           
12 23.11.17 тихо ()   20000 м    ясно 
-42.4 -44.3 82 -42  1030  1.8  682  327    -29.1       
15 23.11.17 тихо ()   20000 м    ясно 
-44.3 -46.3 80 -44  1030.5  -0.5  682  330           
18 23.11.17 тихо ()   20000 м    ясно 
-45.1 -47.1 80 -45  1030.6  -0.3  682  331           
21 23.11.17 тихо ()   20000 м    ясно 
-45.5 -47.1 84 -46  1030.7  -0.2  681  331           
00 24.11.17 тихо ()   20000 м    4/0 верхняя 
[Ci fib]
-44.5 -46.3 82 -45  1029.5  -0.5  681  330  -45.5      25  равномерный
сухой снег
100% 
03 24.11.17 тихо ()   20000 м    6/0 верхняя 
[Ci fib]
-38.3 -40.3 81 -38  1025.9  -0.2  681  321           
06 24.11.17 050 (СВ) 20000 м    4/0 верхняя 
[Ci fib]
-30.7 -33.6 76 -31  1019.8  -2  679  310           
09 24.11.17 тихо ()   20000 м    ясно 
-38.9 -41.1 80 -39  1023.4  -0.4  679  321           
12 24.11.17 тихо ()   20000 м    ясно 
-44.8 -47.1 77 -45  1026.1  -0.5  679  329    -30.5       
15 24.11.17 тихо ()   20000 м    6/0 средняя 
[Ac und]
-43.6 -45.6 81 -44  1024.4  -0.9  678  327           
18 24.11.17 тихо ()   20000 м    4/0 средняя 
[Ac und]
-42.8 -44.9 79 -43  1022.3  -1.5  677  325           
21 24.11.17 тихо ()   20000 м    ясно 
-44.5 -46.3 82 -45  1022.4  -0.8  676  327           
Время (UTC), дата Ветер
(°,м/с) 
Видим.   Явления Облачность Т
(°С)
Тd
(°С)
f(%) Тe
(°С)
Pmin
(гПа)
dP
(гПа)
Po
(мм)
O2
(г/м3)
Тmin Tmax R s Состояние
почвы

Для получения пояснительной информации подведите курсор к названию столбца.

ПОГОДА Токо - архив

Всё, что Вы хотите узнать о погоде Токо - удобно и подробно!

Выберите нужную дату (начиная с 1 января 2015* года) и нажмите кнопку "Найти".
Будут отображены архивные сводки погоды по пункту Токо, начиная с указанной даты.


Отображать данные в формате CSV (для использования в таблицах Excel)


Внимание! Наш архив погоды предназначен исключительно для личного некоммерческого использования в познавательных целях. Если Вам необходимы официальные справки о состоянии погоды (для производственных, юридических, коммерческих и т.п. целей), обращайтесь в органы Росгидромета.

*Примечание: данная дата относится к архиву по метеостанциям СССР (Россия, СНГ, Балтия).
Архив по метеостанциям Зарубежной Европы и Азии (кроме Китая) хранится 10 дней, по другим регионам земного шара (Китай, Африка, Америка, Австралия, Океания) - 1 день.

Токо - район местоположения метеостанции


Название, широта, долгота, высота метеостанции:
Токо 56.3°ш. 131.1°д. 850 м над ур. моря [Российская Федерация]

Дополнительная информация

В oтличие oт бoльшинства пoгoдных сайтoв мы публикуем пoдрoбную метеoинфoрмацию в детальнoм прoфессиoнальнoм фoрмате.

Характеристики температуры и влажнoсти вoздуха измеряются на высoте 2 м в тени вдали oт зданий и деревьев.
Скoрoсть ветра измеряется на высoте 10 м (на урoвне рoста челoвека скoрoсть ветра ниже в 1.5-2 раза). Если метеoстанция нахoдится в гoрoде или в лесу, тo скoрoсть ветра занижена на 2-4 м/с пo сравнению с oткрытым местoм. Скoрoсть ветра над акватoриями крупных рек и oзёр, а также на вершинах хoлмoв на 2-5 м/с выше, чем в oбычных услoвиях.
Атмoсфернoе давление в разных тoчках местнoсти мoжет значительнo oтличаться oт давления на метеoстанции, в зависимoсти oт услoвий рельефа (при пoдъёме на 10 м давление пoнижается примернo на 1 мм рт.ст.).